Tracking 29892 objects as of 21-Nov-2024
HD Live streaming from Space Station
objects crossing your sky now

ORBASTRO-PC-1

Track ORBASTRO-PC-1 now!
10-day predictions


NORAD ID: 58258
Int'l Code: 2023-174C
Perigee: 493.4 km
Apogee: 508.9 km
Inclination: 97.4 °
Period: 94.5 minutes
Semi major axis: 6872 km
RCS: Unknown
Launch date: November 11, 2023
Source: United Kingdom (UK)
Launch site: AIR FORCE WESTERN TEST RANGE (AFWTR)
Your satellite tracking list
Your tracking list is empty




NASA's NSSDC Master Catalog

Two Line Element Set (TLE):
1 58258U 23174C   24326.18267859  .00016997  00000-0  70403-3 0  9997
2 58258  97.4362  38.2648 0011322  63.8880 296.3520 15.23925428 57532
Source of the keplerian elements: AFSPC